Location: Chequamegon National Forest
(46.1070°N, 90.8420°W)
Time: 05:48:35
(UTC-06:00)

Amateur Radio Satellites - All Passes

Search period start: 11 December 2016 05:18
Search period end: 12 December 2016 05:18
Location: Chequamegon National Forest, 46.1070°N, 90.8420°W

Satellite Date Start Highest point End Downlink Frequencies (MHz)
Time Altitude Azimuth
GOMX 1 11 Dec 05:25:11 05:30:24 42° 96° (E) 05:35:32 467.674
Cosmos 2491 11 Dec 05:29:09 05:36:53 37° 84° (E) 05:44:37 435.465 / 435.565
LilacSat-2 11 Dec 05:35:59 05:39:02 23° 94° (E) 05:42:02 437.200
NOAA 18 11 Dec 05:36:21 05:39:47 17° 89° (E) 05:43:12 137.9125
CUBESAT XI-V 11 Dec 05:38:41 05:41:00 14° 272° (W) 05:43:20 437.345
BEESAT 2 11 Dec 05:40:50 05:44:08 25° 319° (NW) 05:47:29 435.950
AIST 2 11 Dec 05:44:02 05:46:15 14° 110° (ESE) 05:48:28 435.215
HORYU 2 11 Dec 06:08:56 06:13:14 50° 289° (WNW) 06:17:29 437.375
RS-15 11 Dec 06:11:49 06:23:04 55° 113° (ESE) 06:34:48 29.354- 29.394
CUTE-I 11 Dec 06:17:35 06:22:52 58° 101° (ESE) 06:28:05 437.470
Cosmos 2504 11 Dec 06:18:04 06:26:54 77° 79° (E) 06:35:07 435.465 / 435.565
BRITE-PL 11 Dec 06:18:48 06:23:49 37° 293° (WNW) 06:28:58 437.365/2234.400
NOAA 15 11 Dec 06:21:31 06:26:49 68° 103° (ESE) 06:32:05 137.62
STRAND 1 11 Dec 06:38:58 06:44:06 76° 257° (WSW) 06:49:15 437.568
DOVE 4 11 Dec 06:44:13 06:49:32 88° 286° (WNW) 06:54:37 437.250
Cubesat XI-IV 11 Dec 06:45:27 06:50:49 84° 285° (WNW) 06:56:08 437.490
YUBILEINY 11 Dec 06:52:22 07:00:25 41° 274° (W) 07:08:26 435.215
AIST 1 11 Dec 06:53:45 06:57:42 33° 270° (W) 07:01:39
GOMX 1 11 Dec 07:03:29 07:08:18 32° 294° (WNW) 07:13:05 467.674
LilacSat-2 11 Dec 07:10:03 07:13:20 28° 291° (WNW) 07:16:35 437.200
AO-7 11 Dec 07:12:10 07:15:30 13° 325° (NW) 07:18:52 29.400- 29.500
NOAA 18 11 Dec 07:15:30 07:21:04 77° 288° (WNW) 07:26:33 137.9125
HO-68 11 Dec 07:19:01 07:25:44 40° 97° (E) 07:32:25 435.675
AIST 2 11 Dec 07:20:05 07:24:11 68° 308° (NW) 07:28:21 435.215
CINEMA 3 11 Dec 07:20:45 07:25:27 57° 99° (E) 07:29:53 145.822/145.860
AAUSAT CUBESAT 2 11 Dec 07:22:00 07:23:51 13° 89° (E) 07:25:41 437.432
Cosmos 2491 11 Dec 07:24:51 07:33:24 55° 286° (WNW) 07:41:58 435.465 / 435.565
CUTE 1.7 + AOD 2 11 Dec 07:25:05 07:29:01 37° 97° (E) 07:32:57 437.475
AO-85 11 Dec 07:26:42 07:29:01 15° 32° (NNE) 07:31:17 145.980
PRISM 11 Dec 07:28:07 07:31:27 25° 65° (ENE) 07:34:49 437.425
UWE-3 11 Dec 07:31:53 07:33:26 12° 88° (E) 07:34:56 435.000/436.395/437.385
CANX-2 11 Dec 07:44:10 07:48:24 70° 101° (ESE) 07:52:37 2200.000
COMPASS 1 11 Dec 07:56:38 08:00:32 37° 97° (E) 08:04:25 437.405
SEEDS 11 Dec 07:57:20 08:01:28 56° 100° (E) 08:05:36 437.485
CUTE-I 11 Dec 07:58:26 08:02:31 23° 299° (WNW) 08:06:34 437.470
ZACube-1 11 Dec 07:59:04 08:01:19 14° 89° (E) 08:03:32 437.345
NOAA 15 11 Dec 08:02:22 08:06:05 20° 301° (WNW) 08:09:47 137.62
FUNcube-1 11 Dec 08:03:16 08:05:34 14° 90° (E) 08:07:50 145.935
CUSAT 1 11 Dec 08:07:18 08:09:11 17° 94° (E) 08:11:00 437.405
UNISAT 6 11 Dec 08:11:39 08:14:59 20° 63° (ENE) 08:18:18 437.425
Cosmos 2504 11 Dec 08:12:38 08:19:18 26° 281° (WNW) 08:25:42 435.465 / 435.565
DOVE 4 11 Dec 08:23:33 08:26:24 15° 303° (WNW) 08:29:11 437.250
RS-15 11 Dec 08:23:52 08:35:38 58° 319° (NW) 08:47:51 29.354- 29.394
Oscar 11 11 Dec 08:25:19 08:28:52 24° 94° (E) 08:32:23 145.826/435.025
Cubesat XI-IV 11 Dec 08:27:19 08:30:05 14° 305° (NW) 08:32:51 437.490
CUBEBUG 2 11 Dec 08:36:07 08:40:30 87° 106° (ESE) 08:44:43 437.445
TIGRISAT 11 Dec 08:38:48 08:42:56 32° 67° (ENE) 08:47:00 435.000
ANTELSAT 11 Dec 08:41:42 08:45:57 36° 68° (ENE) 08:50:09 437.575/2403.000
AAUSAT CUBESAT 2 11 Dec 08:55:37 08:59:44 64° 287° (WNW) 09:03:51 437.432
NOAA 18 11 Dec 08:58:06 09:00:49 14° 307° (NW) 09:03:32 137.9125
CINEMA 3 11 Dec 08:58:50 09:02:06 19° 299° (WNW) 09:05:18 145.822/145.860
Cosmos 2499 11 Dec 09:01:10 09:06:16 17° 53° (NE) 09:11:08 435.465 / 435.565
AIST 2 11 Dec 09:01:13 09:03:27 14° 329° (NNW) 09:05:42 435.215
CUTE 1.7 + AOD 2 11 Dec 09:01:21 09:04:40 23° 294° (WNW) 09:07:59 437.475
PRISM 11 Dec 09:02:57 09:06:37 32° 263° (W) 09:10:20 437.425
DELFI C3 11 Dec 09:03:10 09:06:18 22° 93° (E) 09:09:25 145.870
AO-85 11 Dec 09:06:06 09:10:08 82° 53° (NE) 09:14:00 145.980
UWE-3 11 Dec 09:06:09 09:10:26 70° 285° (WNW) 09:14:34 435.000/436.395/437.385
HO-68 11 Dec 09:06:44 09:13:32 46° 297° (WNW) 09:20:18 435.675
CANX-2 11 Dec 09:21:37 09:23:43 14° 299° (WNW) 09:25:49 2200.000
QB50P2 11 Dec 09:21:51 09:23:46 13° 59° (ENE) 09:25:42 145.880/145.840
POLYITAN 1 11 Dec 09:22:23 09:24:09 12° 59° (ENE) 09:25:55 437.675
Cosmos 2491 11 Dec 09:29:03 09:32:40 13° 311° (NW) 09:36:17 435.465 / 435.565
DUCHIFAT 1 11 Dec 09:29:22 09:31:07 12° 59° (ENE) 09:32:52 145.980
JAS-2 11 Dec 09:31:25 09:36:35 31° 65° (ENE) 09:41:21 435.910
QB50P1 11 Dec 09:32:35 09:35:06 15° 61° (ENE) 09:37:36 145.935-145.965
COMPASS 1 11 Dec 09:32:39 09:35:53 22° 295° (WNW) 09:39:06 437.405
ZACube-1 11 Dec 09:33:52 09:38:00 56° 287° (WNW) 09:42:03 437.345
GONETS M04 11 Dec 09:34:09 09:40:58 24° 61° (ENE) 09:47:44
SEEDS 11 Dec 09:34:12 09:36:44 16° 298° (WNW) 09:39:17 437.485
FUNcube-1 11 Dec 09:38:06 09:42:12 55° 288° (WNW) 09:46:14 145.935
UNISAT 6 11 Dec 09:46:47 09:51:20 53° 260° (W) 09:55:51 437.425
DANDE 11 Dec 09:49:32 09:53:20 76° 281° (WNW) 09:56:21 436.750
CUSAT 1 11 Dec 09:49:50 09:51:03 12° 290° (WNW) 09:52:14 437.405
PCSat 11 Dec 09:51:50 09:56:51 40° 113° (ESE) 10:01:53 145.827
POPSAT HIP 1 11 Dec 09:53:38 09:57:03 24° 65° (ENE) 10:00:28 437.405
BEESAT 3 11 Dec 09:59:50 10:00:54 11° 28° (NNE) 10:01:59 437.485
Oscar 11 11 Dec 10:01:09 10:05:04 35° 291° (WNW) 10:08:58 145.826/435.025
BUGSAT 1 11 Dec 10:02:33 10:03:45 11° 58° (ENE) 10:04:57 437.445
HUMSAT D 11 Dec 10:09:06 10:13:09 61° 102° (ESE) 10:17:11 437.325/437.525
CUBEBUG 2 11 Dec 10:15:01 10:16:24 11° 302° (WNW) 10:17:46 437.445
TIGRISAT 11 Dec 10:15:29 10:19:35 30° 264° (W) 10:23:39 435.000
ANTELSAT 11 Dec 10:18:45 10:22:42 27° 266° (W) 10:26:36 437.575/2403.000
DELFI C3 11 Dec 10:37:34 10:41:11 33° 291° (WNW) 10:44:48 145.870
RS-15 11 Dec 10:40:48 10:51:29 33° 351° (N) 11:02:19 29.354- 29.394
BEESAT 2 11 Dec 10:41:18 10:43:06 13° 30° (NNE) 10:44:53 435.950
NANOSAT C BR1 11 Dec 10:42:54 10:47:09 70° 74° (ENE) 10:51:24 145.865
Cosmos 2499 11 Dec 10:52:45 11:01:19 69° 78° (ENE) 11:09:11 435.465 / 435.565
QB50P2 11 Dec 10:54:41 10:58:58 77° 257° (WSW) 11:03:17 145.880/145.840
POLYITAN 1 11 Dec 10:55:02 10:59:20 81° 258° (WSW) 11:03:38 437.675
HO-68 11 Dec 10:57:32 10:59:31 11° 318° (NW) 11:01:29 435.675
DUCHIFAT 1 11 Dec 11:01:56 11:06:11 80° 256° (WSW) 11:10:29 145.980
AISAT 11 Dec 11:05:26 11:08:15 16° 91° (E) 11:11:04 437.250
QB50P1 11 Dec 11:06:09 11:10:23 62° 259° (W) 11:14:39 145.935-145.965
CUBEBUG 1 11 Dec 11:14:41 11:18:32 28° 95° (E) 11:22:21 437.445
JAS-2 11 Dec 11:15:49 11:21:36 43° 261° (W) 11:26:50 435.910
ESTCUBE 1 11 Dec 11:23:14 11:27:42 54° 100° (E) 11:32:08 437.505/2401.250
Oscar 19 11 Dec 11:24:20 11:28:18 23° 61° (ENE) 11:32:17 437.125/150
50 SAT 11 Dec 11:27:23 11:29:54 18° 93° (E) 11:32:25 437.505
POPSAT HIP 1 11 Dec 11:28:40 11:32:39 37° 263° (W) 11:36:38 437.405
SPROUT 11 Dec 11:29:59 11:32:59 18° 92° (E) 11:35:58 437.525
GONETS M04 11 Dec 11:30:11 11:38:56 84° 264° (W) 11:47:42
UKube-1 11 Dec 11:31:43 11:32:46 11° 88° (E) 11:33:50 .
BUGSAT 1 11 Dec 11:34:10 11:38:25 89° 83° (E) 11:42:43 437.445
DX 1 11 Dec 11:35:05 11:37:53 16° 91° (E) 11:40:40 434.975-435.025
PCSat 11 Dec 11:35:15 11:40:16 38° 313° (NW) 11:45:20 145.827
BEESAT 3 11 Dec 11:35:35 11:39:28 49° 49° (NE) 11:43:20 437.485
VELOX 1 11 Dec 11:40:58 11:45:04 34° 97° (E) 11:49:07 145.980
HUMSAT D 11 Dec 11:46:07 11:48:18 14° 298° (WNW) 11:50:29 437.325/437.525
Gurwin Techsat 1B 11 Dec 12:07:57 12:12:31 30° 64° (ENE) 12:17:05 435.225
BEESAT 2 11 Dec 12:17:42 12:21:43 60° 51° (NE) 12:25:42 435.950
NANOSAT C BR1 11 Dec 12:21:37 12:23:21 12° 271° (W) 12:25:04 145.865
TISAT 1 11 Dec 12:30:58 12:33:05 13° 90° (E) 12:35:11 437.305
AO-7 11 Dec 12:36:12 12:42:14 23° 47° (NE) 12:48:17 29.400- 29.500
AISAT 11 Dec 12:40:40 12:45:05 57° 289° (WNW) 12:49:26 437.250
Cosmos 2499 11 Dec 12:46:53 12:53:38 28° 280° (W) 13:00:00 435.465 / 435.565
CUBEBUG 1 11 Dec 12:50:51 12:54:49 32° 293° (WNW) 12:58:45 437.445
RS-15 11 Dec 12:57:00 13:08:25 40° 25° (NNE) 13:19:40 29.354- 29.394
50 SAT 11 Dec 13:00:04 13:03:17 32° 290° (WNW) 13:06:30 437.505
ESTCUBE 1 11 Dec 13:00:59 13:04:07 19° 298° (WNW) 13:07:15 437.505/2401.250
Oscar 19 11 Dec 13:02:14 13:07:15 54° 260° (W) 13:12:20 437.125/150
UKube-1 11 Dec 13:05:01 13:09:23 81° 285° (WNW) 13:13:42 .
SPROUT 11 Dec 13:05:02 13:09:09 46° 289° (WNW) 13:13:14 437.525
DX 1 11 Dec 13:10:05 13:14:24 54° 289° (WNW) 13:18:41 434.975-435.025
BEESAT 3 11 Dec 13:13:56 13:16:47 19° 247° (WSW) 13:19:37 437.485
VELOX 1 11 Dec 13:17:38 13:21:24 27° 294° (WNW) 13:25:09 145.980
PCSat 11 Dec 13:23:25 13:25:18 12° 336° (NNW) 13:27:12 145.827
GONETS M04 11 Dec 13:28:55 13:34:24 19° 285° (WNW) 13:39:55
SWISSCUBE 11 Dec 13:41:51 13:45:10 18° 92° (E) 13:48:26 437.505
ITAMSAT 1 11 Dec 13:43:54 13:48:54 49° 69° (ENE) 13:53:55 435.822/435.867
BEESAT 11 Dec 13:45:17 13:48:31 18° 91° (E) 13:51:43 436.000
Gurwin Techsat 1B 11 Dec 13:47:16 13:52:17 42° 262° (W) 13:57:21 435.225
O/OREOS (USA 219) 11 Dec 13:49:14 13:51:59 16° 100° (E) 13:54:45 437.305
BEESAT 2 11 Dec 13:56:39 13:59:04 15° 249° (WSW) 14:01:29 435.950
AIST 2 11 Dec 14:01:00 14:04:34 26° 41° (NE) 14:08:08 435.215
AUBIESAT-1 11 Dec 14:03:00 14:05:35 15° 94° (E) 14:08:06 437.475
TISAT 1 11 Dec 14:04:57 14:09:08 61° 287° (WNW) 14:13:16 437.305
ITUPSAT 1 11 Dec 14:16:19 14:20:40 34° 97° (E) 14:24:58 437.325
M-CUBED/EXP-1 PRIME 11 Dec 14:19:36 14:23:32 27° 99° (E) 14:27:18 437.505
AO-7 11 Dec 14:25:32 14:33:49 81° 69° (ENE) 14:42:12 29.400- 29.500
ISS 11 Dec 14:36:10 14:39:22 55° 147° (SSE) 14:42:37 145.825
UKube-1 11 Dec 14:43:58 14:44:39 10° 304° (WNW) 14:45:20 .
RS-15 11 Dec 15:10:23 15:22:53 85° 55° (NE) 15:34:59 29.354- 29.394
SWISSCUBE 11 Dec 15:18:38 15:23:18 55° 289° (WNW) 15:27:55 437.505
KKS-1 11 Dec 15:19:28 15:22:19 16° 91° (E) 15:25:10 437.445
BEESAT 11 Dec 15:21:59 15:26:40 57° 289° (WNW) 15:31:18 436.000
ITAMSAT 1 11 Dec 15:24:26 15:28:37 24° 267° (W) 15:32:49 435.822/435.867
O/OREOS (USA 219) 11 Dec 15:26:24 15:30:54 60° 297° (WNW) 15:35:24 437.305
MOZHAYETS 4 11 Dec 15:33:05 15:37:35 54° 100° (E) 15:42:03
HORYU 2 11 Dec 15:33:30 15:37:06 24° 64° (ENE) 15:40:41 437.375
Cosmos 2491 11 Dec 15:35:52 15:42:12 21° 58° (ENE) 15:48:29 435.465 / 435.565
AUBIESAT-1 11 Dec 15:35:55 15:40:27 65° 292° (WNW) 15:44:44 437.475
AIST 2 11 Dec 15:39:11 15:43:15 46° 240° (WSW) 15:47:18 435.215
M-CUBED/EXP-1 PRIME 11 Dec 15:53:46 15:58:04 38° 298° (WNW) 16:02:10 437.505
CUBESAT XI-V 11 Dec 15:53:46 15:56:25 15° 89° (E) 15:59:04 437.345
BRITE-PL 11 Dec 15:53:53 15:58:11 46° 70° (ENE) 16:02:52 437.365/2234.400
ITUPSAT 1 11 Dec 15:54:16 15:58:25 30° 295° (WNW) 16:02:33 437.325
CUTE-I 11 Dec 16:04:05 16:07:50 20° 59° (ENE) 16:11:35 437.470
NOAA 15 11 Dec 16:06:15 16:10:10 22° 60° (ENE) 16:14:05 137.62
ISS 11 Dec 16:12:52 16:16:00 38° 346° (NNW) 16:19:08 145.825
DOVE 4 11 Dec 16:15:54 16:19:18 18° 59° (ENE) 16:22:47 437.250
LilacSat-2 11 Dec 16:20:47 16:23:24 18° 65° (ENE) 16:26:01 437.200
AO-7 11 Dec 16:21:03 16:27:28 24° 268° (W) 16:33:58 29.400- 29.500
Cubesat XI-IV 11 Dec 16:30:56 16:35:36 31° 64° (ENE) 16:40:17 437.490
GOMX 1 11 Dec 16:35:28 16:40:08 52° 71° (ENE) 16:45:09 467.674
STARS 11 Dec 16:43:16 16:47:38 54° 101° (E) 16:51:55 437.465
CINEMA 3 11 Dec 16:51:10 16:52:32 11° 56° (NE) 16:53:54 145.822/145.860
PCSat 11 Dec 16:54:24 16:57:32 15° 30° (NNE) 17:00:41 145.827
KKS-1 11 Dec 16:54:50 16:59:14 56° 289° (WNW) 17:03:36 437.445
NOAA 18 11 Dec 17:04:23 17:09:32 41° 66° (ENE) 17:14:42 137.9125
HORYU 2 11 Dec 17:09:15 17:13:27 39° 262° (W) 17:17:40 437.375
O/OREOS (USA 219) 11 Dec 17:10:48 17:11:18 10° 318° (NW) 17:11:48 437.305
MOZHAYETS 4 11 Dec 17:11:11 17:14:22 19° 298° (WNW) 17:17:33
Cosmos 2504 11 Dec 17:11:40 17:14:54 13° 69° (ENE) 17:18:09 435.465 / 435.565
AUBIESAT-1 11 Dec 17:13:09 17:13:55 10° 311° (NW) 17:14:41 437.475
RS-15 11 Dec 17:24:00 17:33:59 31° 257° (WSW) 17:43:46 29.354- 29.394
CUBESAT XI-V 11 Dec 17:29:36 17:34:15 67° 287° (WNW) 17:38:55 437.345
Cosmos 2491 11 Dec 17:31:41 17:40:28 86° 82° (E) 17:49:11 435.465 / 435.565
BRITE-PL 11 Dec 17:33:37 17:37:01 21° 270° (W) 17:40:37 437.365/2234.400
SO-50 11 Dec 17:40:12 17:43:26 18° 112° (ESE) 17:46:39 436.795
CUTE-I 11 Dec 17:42:00 17:47:20 70° 257° (WSW) 17:52:43 437.470
NOAA 15 11 Dec 17:44:21 17:49:31 60° 258° (WSW) 17:54:44 137.62
ISS 11 Dec 17:50:01 17:53:01 31° 6° (N) 17:56:01 145.825
AIST 1 11 Dec 17:50:12 17:52:09 13° 83° (E) 17:54:05
HO-68 11 Dec 17:50:20 17:56:51 40° 61° (ENE) 18:03:25 435.675
DOVE 4 11 Dec 17:51:23 17:56:21 72° 259° (WSW) 18:01:36 437.250
LilacSat-2 11 Dec 17:53:48 17:57:25 40° 262° (W) 18:01:03 437.200
YUBILEINY 11 Dec 17:59:13 18:07:31 52° 89° (E) 18:15:54 435.215
CUBEBUG 2 11 Dec 18:02:16 18:04:30 13° 59° (ENE) 18:06:45 437.445
Cubesat XI-IV 11 Dec 18:10:29 18:15:33 41° 262° (W) 18:20:37 437.490
GOMX 1 11 Dec 18:14:59 18:18:36 21° 271° (W) 18:22:24 467.674
AAUSAT CUBESAT 2 11 Dec 18:15:09 18:16:56 13° 60° (ENE) 18:18:44 437.432
CUTE 1.7 + AOD 2 11 Dec 18:20:01 18:23:52 36° 69° (ENE) 18:27:43 437.475
STARS 11 Dec 18:20:35 18:23:34 18° 299° (WNW) 18:26:32 437.465
CINEMA 3 11 Dec 18:23:46 18:28:44 69° 74° (ENE) 18:33:45 145.822/145.860
UWE-3 11 Dec 18:30:37 18:33:24 16° 62° (ENE) 18:36:10 435.000/436.395/437.385
CUSAT 1 11 Dec 18:33:07 18:36:34 25° 74° (ENE) 18:40:48 437.405
PCSat 11 Dec 18:36:46 18:42:09 57° 53° (NE) 18:47:29 145.827
CANX-2 11 Dec 18:39:01 18:43:10 66° 75° (ENE) 18:47:22 2200.000
NOAA 18 11 Dec 18:45:19 18:50:15 32° 264° (W) 18:55:14 137.9125
STRAND 1 11 Dec 18:47:12 18:51:41 30° 95° (E) 18:56:07 437.568
COMPASS 1 11 Dec 18:49:38 18:53:22 34° 69° (ENE) 18:57:08 437.405
SEEDS 11 Dec 18:51:08 18:55:10 52° 73° (ENE) 18:59:15 437.485
ZACube-1 11 Dec 18:56:58 18:59:58 18° 63° (ENE) 19:02:55 437.345
Cosmos 2504 11 Dec 18:57:56 19:06:17 61° 91° (E) 19:15:00 435.465 / 435.565
FUNcube-1 11 Dec 19:00:54 19:03:53 18° 63° (ENE) 19:06:51 145.935
SO-50 11 Dec 19:18:43 19:23:27 67° 309° (NW) 19:28:08 436.795
Oscar 11 11 Dec 19:22:29 19:26:03 26° 66° (ENE) 19:29:39 145.826/435.025
AIST 1 11 Dec 19:24:50 19:29:08 65° 281° (W) 19:33:31
ISS 11 Dec 19:26:34 19:29:52 74° 25° (NNE) 19:33:11 145.825
Cosmos 2491 11 Dec 19:30:03 19:36:08 22° 283° (WNW) 19:42:15 435.465 / 435.565
CUBEBUG 2 11 Dec 19:35:44 19:40:30 86° 257° (WSW) 19:45:10 437.445
HO-68 11 Dec 19:37:36 19:44:27 47° 261° (W) 19:51:23 435.675
AAUSAT CUBESAT 2 11 Dec 19:47:46 19:51:51 72° 258° (WSW) 19:55:59 437.432
DELFI C3 11 Dec 19:51:38 19:54:22 18° 64° (ENE) 19:57:07 145.870
CUTE 1.7 + AOD 2 11 Dec 19:56:29 19:59:48 22° 267° (W) 20:03:08 437.475
YUBILEINY 11 Dec 19:56:31 20:04:33 40° 291° (WNW) 20:12:42 435.215
CINEMA 3 11 Dec 20:03:13 20:06:20 16° 271° (W) 20:09:28 145.822/145.860
UWE-3 11 Dec 20:04:47 20:09:23 66° 258° (WSW) 20:13:54 435.000/436.395/437.385
CUSAT 1 11 Dec 20:14:38 20:18:25 34° 263° (W) 20:23:14 437.405
CANX-2 11 Dec 20:17:43 20:19:29 12° 271° (W) 20:21:16 2200.000
PCSat 11 Dec 20:20:51 20:25:10 25° 252° (WSW) 20:29:28 145.827
DANDE 11 Dec 20:22:05 20:25:11 81° 79° (E) 20:29:06 436.750
COMPASS 1 11 Dec 20:25:44 20:29:00 22° 267° (W) 20:32:17 437.405
STRAND 1 11 Dec 20:26:13 20:30:55 38° 293° (WNW) 20:35:35 437.568
SEEDS 11 Dec 20:28:45 20:31:12 15° 270° (W) 20:33:40 437.485
ZACube-1 11 Dec 20:31:25 20:35:51 56° 260° (W) 20:40:13 437.345
FUNcube-1 11 Dec 20:35:22 20:39:45 55° 260° (W) 20:44:06 145.935
PRISM 11 Dec 20:41:31 20:45:06 27° 96° (E) 20:48:40 437.425
Cosmos 2504 11 Dec 20:52:26 21:00:11 36° 293° (WNW) 21:08:13 435.465 / 435.565
Oscar 11 11 Dec 20:58:11 21:02:05 33° 264° (W) 21:06:00 145.826/435.025
SO-50 11 Dec 21:01:51 21:04:48 16° 330° (NNW) 21:07:42 436.795
HUMSAT D 11 Dec 21:02:19 21:06:24 57° 73° (ENE) 21:10:29 437.325/437.525
ISS 11 Dec 21:03:35 21:06:04 20° 223° (SW) 21:08:32 145.825
CUBEBUG 2 11 Dec 21:17:14 21:17:45 10° 274° (W) 21:18:16 437.445
DELFI C3 11 Dec 21:25:11 21:28:54 40° 262° (W) 21:32:39 145.870
PHONESAT 2.4 11 Dec 21:34:06 21:34:33 10° 157° (SSE) 21:35:00 2401.200-2431.200
UNISAT 6 11 Dec 21:36:22 21:40:02 26° 94° (E) 21:43:37 437.425
Cosmos 2499 11 Dec 21:46:26 21:48:05 11° 68° (ENE) 21:49:44 435.465 / 435.565
TIGRISAT 11 Dec 22:03:55 22:08:08 46° 99° (E) 22:12:14 435.000
AISAT 11 Dec 22:05:01 22:08:19 21° 63° (ENE) 22:11:38 437.250
50 SAT 11 Dec 22:06:14 22:07:39 12° 62° (ENE) 22:09:04 437.505
ANTELSAT 11 Dec 22:07:05 22:11:22 53° 100° (E) 22:15:33 437.575/2403.000
CUBEBUG 1 11 Dec 22:12:53 22:16:46 32° 67° (ENE) 22:20:41 437.445
PRISM 11 Dec 22:16:43 22:20:22 30° 293° (WNW) 22:24:01 437.425
JAS-2 11 Dec 22:21:59 22:25:39 19° 92° (E) 22:29:26 435.910
ESTCUBE 1 11 Dec 22:24:55 22:29:21 67° 74° (ENE) 22:33:49 437.505/2401.250
SPROUT 11 Dec 22:25:50 22:29:01 20° 64° (ENE) 22:32:13 437.525
UKube-1 11 Dec 22:28:04 22:30:24 14° 59° (ENE) 22:32:43 .
DX 1 11 Dec 22:32:53 22:36:07 21° 63° (ENE) 22:39:23 434.975-435.025
QB50P2 11 Dec 22:38:25 22:40:46 14° 90° (E) 22:43:06 145.880/145.840
POLYITAN 1 11 Dec 22:38:56 22:41:05 14° 90° (E) 22:43:13 437.675
HUMSAT D 11 Dec 22:40:10 22:42:22 14° 270° (W) 22:44:34 437.325/437.525
GONETS M04 11 Dec 22:40:17 22:46:43 24° 78° (ENE) 22:53:08
VELOX 1 11 Dec 22:40:23 22:44:33 41° 69° (ENE) 22:48:45 145.980
DUCHIFAT 1 11 Dec 22:45:01 22:47:06 13° 89° (E) 22:49:11 145.980
QB50P1 11 Dec 22:49:12 22:52:04 17° 91° (E) 22:54:54 145.935-145.965
PHONESAT 2.4 11 Dec 23:06:58 23:09:07 22° 173° (S) 23:11:16 2401.200-2431.200
POPSAT HIP 1 11 Dec 23:10:48 23:14:29 28° 95° (E) 23:18:08 437.405
UNISAT 6 11 Dec 23:12:53 23:16:48 33° 292° (WNW) 23:20:37 437.425
BUGSAT 1 11 Dec 23:16:02 23:17:01 11° 88° (E) 23:18:00 437.445
AO-85 11 Dec 23:23:56 23:26:49 16° 111° (ESE) 23:29:35 145.980
TISAT 1 11 Dec 23:24:58 23:27:30 16° 61° (ENE) 23:30:03 437.305
Cosmos 2499 11 Dec 23:30:41 23:39:04 54° 90° (E) 23:47:37 435.465 / 435.565
50 SAT 11 Dec 23:37:04 23:40:30 53° 260° (W) 23:43:58 437.505
AISAT 11 Dec 23:40:12 23:44:28 46° 261° (W) 23:48:48 437.250
TIGRISAT 11 Dec 23:41:22 23:44:29 20° 297° (WNW) 23:47:35 435.000
ANTELSAT 11 Dec 23:44:47 23:47:41 18° 298° (WNW) 23:50:32 437.575/2403.000
CUBEBUG 1 11 Dec 23:49:16 23:53:02 28° 265° (W) 23:56:51 437.445
O/OREOS (USA 219) 11 Dec 23:54:41 23:59:02 47° 60° (ENE) 00:03:21 437.305
NANOSAT C BR1 12 Dec 00:00:16 00:04:31 89° 269° (W) 00:08:42 145.865
SPROUT 12 Dec 00:00:32 00:04:39 44° 261° (W) 00:08:49 437.525
UKube-1 12 Dec 00:01:35 00:05:53 70° 257° (WSW) 00:10:13 .
ESTCUBE 1 12 Dec 00:04:20 00:06:37 14° 271° (W) 00:08:56 437.505/2401.250
JAS-2 12 Dec 00:06:01 00:11:10 62° 289° (WNW) 00:16:40 435.910
DX 1 12 Dec 00:07:50 00:12:01 45° 261° (W) 00:16:15 434.975-435.025
QB50P2 12 Dec 00:12:46 00:16:56 57° 288° (WNW) 00:21:04 145.880/145.840
POLYITAN 1 12 Dec 00:13:05 00:17:17 61° 287° (WNW) 00:21:25 437.675
VELOX 1 12 Dec 00:17:45 00:21:10 22° 267° (W) 00:24:37 145.980
DUCHIFAT 1 12 Dec 00:19:02 00:23:13 61° 287° (WNW) 00:27:19 145.980
QB50P1 12 Dec 00:24:01 00:28:06 47° 289° (WNW) 00:32:07 145.935-145.965
SO-50 12 Dec 00:28:53 00:30:04 11° 20° (NNE) 00:31:14 436.795
GONETS M04 12 Dec 00:33:47 00:42:31 81° 280° (W) 00:51:16
PHONESAT 2.4 12 Dec 00:41:45 00:43:49 20° 190° (S) 00:45:52 2401.200-2431.200
POPSAT HIP 1 12 Dec 00:46:33 00:50:13 29° 293° (WNW) 00:53:51 437.405
BUGSAT 1 12 Dec 00:48:45 00:52:56 75° 285° (WNW) 00:57:01 437.445
AUBIESAT-1 12 Dec 00:49:40 00:53:26 28° 60° (ENE) 00:57:20 437.475
SWISSCUBE 12 Dec 00:50:26 00:54:30 29° 65° (ENE) 00:58:35 437.505
BEESAT 12 Dec 00:53:47 00:57:49 28° 65° (ENE) 01:01:52 436.000
TISAT 1 12 Dec 00:58:29 01:02:40 60° 258° (WSW) 01:06:54 437.305
AO-85 12 Dec 01:01:57 01:06:48 76° 307° (NW) 01:11:17 145.980
M-CUBED/EXP-1 PRIME 12 Dec 01:07:07 01:11:19 48° 65° (ENE) 01:15:46 437.505
Oscar 19 12 Dec 01:11:02 01:16:00 43° 98° (E) 01:20:57 437.125/150
Cosmos 2499 12 Dec 01:24:20 01:32:28 41° 291° (WNW) 01:40:45 435.465 / 435.565
ITUPSAT 1 12 Dec 01:25:15 01:29:53 53° 71° (ENE) 01:34:32 437.325
O/OREOS (USA 219) 12 Dec 01:34:52 01:38:06 20° 259° (WSW) 01:41:19 437.305
NANOSAT C BR1 12 Dec 01:38:33 01:39:31 11° 302° (WNW) 01:40:30 145.865
ITAMSAT 1 12 Dec 01:55:46 01:58:19 14° 88° (E) 02:00:50 435.822/435.867
Gurwin Techsat 1B 12 Dec 02:00:24 02:05:42 63° 102° (ESE) 02:10:58 435.225
SO-50 12 Dec 02:07:41 02:11:54 35° 43° (NE) 02:16:01 436.795
KKS-1 12 Dec 02:19:42 02:23:08 22° 63° (ENE) 02:26:35 437.445
AUBIESAT-1 12 Dec 02:23:40 02:27:41 36° 258° (WSW) 02:31:54 437.475
AO-7 12 Dec 02:25:20 02:31:32 22° 90° (E) 02:37:39 29.400- 29.500
SWISSCUBE 12 Dec 02:27:49 02:32:11 36° 263° (W) 02:36:35 437.505
BEESAT 12 Dec 02:31:04 02:35:28 37° 262° (W) 02:39:55 436.000
GONETS M04 12 Dec 02:34:58 02:40:55 20° 303° (WNW) 02:46:53
MOZHAYETS 4 12 Dec 02:37:05 02:41:38 69° 73° (ENE) 02:46:11
M-CUBED/EXP-1 PRIME 12 Dec 02:42:46 02:46:02 20° 263° (W) 02:49:27 437.505
AO-85 12 Dec 02:44:59 02:47:54 16° 327° (NNW) 02:50:41 145.980
Oscar 19 12 Dec 02:50:44 02:55:08 28° 296° (WNW) 02:59:30 437.125/150
CUBESAT XI-V 12 Dec 02:59:23 03:02:42 20° 63° (ENE) 03:06:02 437.345
ITUPSAT 1 12 Dec 03:04:36 03:08:01 19° 268° (W) 03:11:27 437.325
BEESAT 3 12 Dec 03:05:17 03:08:51 35° 118° (ESE) 03:12:28 437.485
ITAMSAT 1 12 Dec 03:33:14 03:38:27 84° 286° (WNW) 03:43:37 435.822/435.867
Gurwin Techsat 1B 12 Dec 03:41:16 03:45:12 21° 300° (WNW) 03:49:05 435.225
STARS 12 Dec 03:41:53 03:46:17 67° 73° (ENE) 03:50:43 437.465
SO-50 12 Dec 03:48:14 03:52:21 34° 243° (WSW) 03:56:23 436.795
BEESAT 2 12 Dec 03:48:50 03:52:37 46° 120° (ESE) 03:56:26 435.950
KKS-1 12 Dec 03:55:08 03:59:25 44° 261° (W) 04:03:45 437.445
BRITE-PL 12 Dec 03:56:21 03:59:47 16° 88° (E) 04:03:15 437.365/2234.400
YUBILEINY 12 Dec 04:06:04 04:13:37 30° 64° (ENE) 04:21:07 435.215
AO-7 12 Dec 04:16:51 04:25:17 87° 291° (WNW) 04:33:41 29.400- 29.500
MOZHAYETS 4 12 Dec 04:16:55 04:19:17 14° 271° (W) 04:21:39
CUBESAT XI-V 12 Dec 04:35:16 04:39:43 51° 261° (W) 04:44:15 437.345
GOMX 1 12 Dec 04:35:41 04:39:00 16° 87° (E) 04:42:17 467.674
Cosmos 2491 12 Dec 04:42:35 04:48:31 21° 76° (ENE) 04:54:26 435.465 / 435.565
BEESAT 3 12 Dec 04:43:06 04:46:32 28° 317° (NW) 04:49:59 437.485
Cosmos 2504 12 Dec 04:48:14 04:55:26 27° 62° (ENE) 05:02:17 435.465 / 435.565
HORYU 2 12 Dec 04:57:26 05:01:23 31° 97° (E) 05:05:17 437.375
